Klamath Falls, OR

4:46 AM PST on December 07, 2016 (GMT -0800)
Klamath Falls International

Weather History for KLMT - October, 2014

Change the Weather History Date:

Tuesday, October 14, 2014

  Actual Average Record
Temperature  
Mean Temperature 58 °F 48 °F  
Max Temperature 67 °F 64 °F 85 °F (2015)
Min Temperature 48 °F 31 °F 19 °F (1966)
Degree Days  
Heating Degree Days 7 17  
Month to date heating degree days 146 207  
Since 1 July heating degree days 322 563  
Cooling Degree Days 0 0  
Month to date cooling degree days 0 0  
Year to date cooling degree days 327 169  
Growing Degree Days 7 (Base 50)    
Moisture  
Dew Point 34 °F    
Average Humidity 45    
Maximum Humidity 86    
Minimum Humidity 25    
Precipitation  
Precipitation 0.08 in 0.03 in 0.42 in (2016)
Month to date precipitation 0.08 0.23  
Year to date precipitation 8.54 10.50  
Sea Level Pressure  
Sea Level Pressure 29.72 in    
Wind  
Wind Speed 17 mph (South)    
Max Wind Speed 39 mph    
Max Gust Speed 55 mph    
Visibility 10 miles    
Events Rain    
T = Trace of Precipitation, MM = Missing Value Source: NWS Daily Summary

Daily Weather History Graph

Daily Weather History Graph

Search for Another Location

Airport or City:

Trip Planner

Search our weather history database for the weather conditions in past years. The results will help you decide how hot, cold, wet, or windy it might be!

Date:

Astronomy

Oct. 14, 2014 Rise Set
Actual Time 7:18 AM PDT 6:26 PM PDT
Civil Twilight 6:50 AM PDT 6:54 PM PDT
Nautical Twilight 6:17 AM PDT 7:27 PM PDT
Astronomical Twilight 5:45 AM PDT 7:59 PM PDT
Moon 11:34 PM PDT (10/14) 1:26 PM PDT (10/14)
Length of Visible Light 12h 04m
Length of Day
11h 08m
Waning Gibbous, 60% of the Moon is Illuminated
Oct 14
Waning Gibbous
Oct 15
Last Quarter
Oct 23
New
Oct 30
First Quarter
Nov 6
Full

Hourly Weather History & Observations

Time (PDT) Temp. Dew Point Humidity Pressure Visibility Wind Dir Wind Speed Gust Speed Precip Events Conditions
12:53 AM 54.0 °F 33.1 °F 45% 29.84 in 10.0 mi SSE 9.2 mph - N/A   Clear
1:53 AM 60.1 °F 35.1 °F 39% 29.82 in 10.0 mi South 17.3 mph - N/A   Clear
2:53 AM 59.0 °F 33.1 °F 38% 29.81 in 10.0 mi South 13.8 mph - N/A   Clear
3:53 AM 55.9 °F 32.0 °F 40% 29.81 in 10.0 mi Calm Calm - N/A   Clear
4:53 AM 52.0 °F 33.1 °F 49% 29.82 in 10.0 mi ENE 3.5 mph - N/A   Clear
5:53 AM 51.1 °F 32.0 °F 48% 29.83 in 10.0 mi NNW 5.8 mph - N/A   Clear
6:53 AM 54.0 °F 32.0 °F 43% 29.83 in 10.0 mi SE 10.4 mph - N/A   Clear
7:53 AM 52.0 °F 30.9 °F 45% 29.81 in 10.0 mi SE 10.4 mph - N/A   Partly Cloudy
8:53 AM 57.9 °F 30.0 °F 35% 29.80 in 10.0 mi SW 8.1 mph - N/A   Partly Cloudy
9:53 AM 62.1 °F 28.9 °F 29% 29.78 in 10.0 mi South 15.0 mph - N/A   Clear
10:53 AM 63.0 °F 26.1 °F 25% 29.75 in 10.0 mi South 17.3 mph 27.6 mph N/A   Partly Cloudy
11:53 AM 63.0 °F 30.0 °F 29% 29.70 in 10.0 mi South 24.2 mph 32.2 mph N/A   Clear
12:53 PM 64.9 °F 30.0 °F 27% 29.68 in 9.0 mi SSW 25.3 mph 36.8 mph N/A   Clear
1:53 PM 66.0 °F 32.0 °F 28% 29.65 in 10.0 mi SSW 21.9 mph 29.9 mph N/A   Clear
2:53 PM 66.0 °F 34.0 °F 30% 29.61 in 10.0 mi South 34.5 mph 43.7 mph N/A   Mostly Cloudy
3:53 PM 64.0 °F 34.0 °F 33% 29.61 in 10.0 mi SW 24.2 mph 35.7 mph N/A   Mostly Cloudy
4:53 PM 62.1 °F 35.1 °F 37% 29.61 in 10.0 mi South 38.0 mph 48.3 mph N/A   Mostly Cloudy
5:53 PM 57.0 °F 36.0 °F 45% 29.62 in 10.0 mi South 29.9 mph 43.7 mph N/A   Clear
6:53 PM 55.0 °F 37.0 °F 51% 29.63 in 10.0 mi SSW 29.9 mph 35.7 mph N/A   Partly Cloudy
7:53 PM 54.0 °F 37.9 °F 55% 29.66 in 10.0 mi SW 19.6 mph 28.8 mph 0.00 in   Mostly Cloudy
8:53 PM 50.0 °F 41.0 °F 71% 29.64 in 10.0 mi WSW 9.2 mph - 0.00 in Rain Light Rain
9:53 PM 48.9 °F 42.1 °F 77% 29.63 in 10.0 mi Variable 6.9 mph - 0.00 in Rain Light Rain
10:53 PM 48.9 °F 44.1 °F 83% 29.64 in 10.0 mi SSE 9.2 mph - 0.04 in Rain Light Rain
11:53 PM 48.0 °F 43.0 °F 83% 29.60 in 10.0 mi South 24.2 mph 29.9 mph 0.04 in   Mostly Cloudy